Weather History for Millville, NJ

Change the Weather History Date:

Sunday, February 17, 2013

  Actual Average Record
Temperature  
Mean Temperature 28 °F -  
Max Temperature 32 °F 42 °F 74 °F (1976)
Min Temperature 24 °F 26 °F 1 °F (1979)
Degree Days  
Heating Degree Days 36    
Moisture  
Dew Point 7 °F    
Average Humidity 40    
Maximum Humidity 53    
Minimum Humidity 35    
Precipitation  
Precipitation 0.00 in - - ()
Sea Level Pressure  
Sea Level Pressure 29.87 in    
Wind  
Wind Speed 15 mph (NW)    
Max Wind Speed 26 mph    
Max Gust Speed 40 mph    
Visibility 10 miles    
Events      
Averages and records for this station are not official NWS values.
T = Trace of Precipitation, MM = Missing Value Source: NWS Daily Summary

Daily Weather History Graph

Daily Weather History Graph

Search for Another Location

Airport:

Trip Planner

Search our weather history database for the weather conditions in past years. The results will help you decide how hot, cold, wet, or windy it might be!

Date:

Astronomy

Feb. 17, 2013 Rise Set
Actual Time 6:49 AM EST 5:39 PM EST
Civil Twilight 6:22 AM EST 6:07 PM EST
Nautical Twilight 5:50 AM EST 6:38 PM EST
Astronomical Twilight 5:19 AM EST 7:09 PM EST
Moon 10:43 AM EST (2/17) 12:30 AM EST (2/17)
Length of Visible Light 11h 45m
Length of Day
10h 50m
Waxing Crescent, 49% of the Moon is Illuminated
Feb 17
Waxing Crescent
Feb 17
First Quarter
Feb 25
Full
Mar 4
Last Quarter
Mar 11
New

Hourly Weather History & Observations

Time (EST) Temp. Windchill Dew Point Humidity Pressure Visibility Wind Dir Wind Speed Gust Speed Precip Events Conditions
12:54 AM 30.9 °F 21.2 °F 14.0 °F 50% 29.74 in 10.0 mi NNW 12.7 mph 25.3 mph N/A   Overcast
1:54 AM 30.9 °F 22.2 °F 10.0 °F 42% 29.73 in 10.0 mi NNW 10.4 mph - N/A   Overcast
2:54 AM 30.0 °F 19.1 °F 8.1 °F 40% 29.73 in 10.0 mi NNW 15.0 mph 24.2 mph N/A   Overcast
3:54 AM 30.0 °F 19.5 °F 7.0 °F 38% 29.73 in 10.0 mi NNW 13.8 mph 26.5 mph N/A   Overcast
4:54 AM 28.9 °F 19.8 °F 6.1 °F 38% 29.74 in 10.0 mi NW 10.4 mph 21.9 mph N/A   Clear
5:54 AM 28.0 °F 20.0 °F 7.0 °F 41% 29.76 in 10.0 mi NNW 8.1 mph 21.9 mph N/A   Clear
6:54 AM 27.0 °F 16.1 °F 7.0 °F 43% 29.77 in 10.0 mi WNW 12.7 mph 21.9 mph N/A   Clear
7:54 AM 28.0 °F 17.5 °F 9.0 °F 45% 29.79 in 10.0 mi WNW 12.7 mph 21.9 mph N/A   Clear
9:54 AM 30.9 °F 19.8 °F 10.0 °F 42% 29.82 in 10.0 mi NW 16.1 mph 24.2 mph N/A   Clear
10:54 AM 30.9 °F 20.7 °F 10.0 °F 42% 29.83 in 10.0 mi NNW 13.8 mph 26.5 mph N/A   Scattered Clouds
11:54 AM 32.0 °F 19.8 °F 9.0 °F 38% 29.83 in 10.0 mi WNW 20.7 mph 34.5 mph N/A   Mostly Cloudy
12:54 PM 30.0 °F 17.9 °F 8.1 °F 40% 29.84 in 10.0 mi NW 18.4 mph 34.5 mph N/A   Mostly Cloudy
1:54 PM 32.0 °F 18.4 °F 7.0 °F 35% 29.84 in 10.0 mi NW 26.5 mph 39.1 mph N/A   Mostly Cloudy
2:54 PM 32.0 °F 20.1 °F 7.0 °F 35% 29.85 in 10.0 mi WNW 19.6 mph 32.2 mph N/A   Scattered Clouds
3:54 PM 30.9 °F 16.9 °F 8.1 °F 38% 29.87 in 10.0 mi WNW 26.5 mph 40.3 mph N/A   Clear
4:54 PM 28.0 °F 15.3 °F 12.9 °F 53% 29.90 in 10.0 mi WNW 18.4 mph 28.8 mph 0.00 in   Mostly Cloudy
5:54 PM 28.0 °F 16.1 °F 5.0 °F 38% 29.93 in 10.0 mi WNW 16.1 mph 33.4 mph 0.00 in   Partly Cloudy
6:54 PM 28.0 °F 16.5 °F 6.1 °F 39% 29.96 in 10.0 mi WNW 15.0 mph 25.3 mph N/A   Mostly Cloudy
7:54 PM 28.0 °F 13.9 °F 5.0 °F 38% 29.99 in 10.0 mi WNW 23.0 mph 32.2 mph N/A   Overcast
8:54 PM 27.0 °F 13.5 °F 5.0 °F 39% 30.03 in 10.0 mi WNW 19.6 mph 35.7 mph N/A   Overcast
9:54 PM 26.1 °F 12.3 °F 1.9 °F 35% 30.06 in 10.0 mi NW 19.6 mph 34.5 mph N/A   Mostly Cloudy
10:54 PM 25.0 °F 9.9 °F 1.0 °F 36% 30.08 in 10.0 mi WNW 23.0 mph 34.5 mph N/A   Partly Cloudy
11:54 PM 24.1 °F 8.7 °F -0.0 °F 35% 30.10 in 10.0 mi WNW 23.0 mph 35.7 mph N/A   Overcast